Regional Weather Roundup
Issued by NWS Columbia, SC

Home | Current Version | Previous Version | Text Only | Print | Product List | Glossary On
Versions: 1 2 3 4 5 6 7 8 9 10 11 12 13 14 15 16 17 18 19 20 21 22 23 24 25 26 27
000
ASUS42 KCAE 220710
RWRCAE
REGIONAL WEATHER ROUNDUP
NATIONAL WEATHER SERVICE COLUMBIA SC
300 AM EDT SUN APR 22 2018

NOTE: "FAIR" INDICATES FEW OR NO CLOUDS BELOW 12,000 FEET WITH NO
SIGNIFICANT WEATHER AND/OR OBSTRUCTIONS TO VISIBILITY.

NOT ALL STATIONS ARE QUALITY CONTROLLED BY THE NATIONAL
WEATHER SERVICE. USE DATA WITH CAUTION...ESPECIALLY
DEWPOINT OBSERVATIONS.

SCZ001>056-GAZ040-063>065-077-220800-
...UPSTATE SOUTH CAROLINA...

CITY           SKY/WX    TMP DP  RH WIND       PRES   REMARKS
ANDERSON       FAIR      55  44  66 E6        30.28F
LIBERTY        CLOUDY    45  43  93 E3        30.28F
SPARTANBURG    FAIR      46  41  81 CALM      30.30S
CLEMSON        MOCLDY    51  40  65 CALM      30.29F
GREENVILLE     FAIR      56  45  66 SE5       30.30F
GREENWOOD      CLOUDY    53  48  83 CALM      30.30F
GREER          FAIR      48  42  80 CALM      30.31S
ROCK HILL      FAIR      47  43  86 CALM      30.32F
CHESTER        FAIR      48  43  81 CALM      30.33S
LAURENS        PTSUNNY   55  46  71 SE3       30.29F


...CENTRAL SOUTH CAROLINA...

CITY           SKY/WX    TMP DP  RH WIND       PRES   REMARKS
COLUMBIA APT   MOCLDY    56  52  86 E6        30.30S
COLUMBIA OWENS MOCLDY    56  49  77 CALM      30.31F
MCENTIRE ANGB  FAIR      53  49  86 E6        30.31F
ORANGEBURG     CLOUDY    56  49  77 E3        30.29F
SUMTER SHAW    FAIR      50  45  83 N5        30.29F
AIKEN          CLOUDY    55  50  82 E6        30.32S
BARNWELL       CLOUDY    59  52  77 E7        30.28F
MANNING        FAIR      45  43  93 CALM      30.31F
CAMDEN         FAIR      46  45  93 CALM      30.33F
LANCASTER      FAIR      50  48  93 CALM      30.33F
WINNSBORO      PTSUNNY   54  48  82 E7        30.31S


...EASTERN AND COASTAL SOUTH CAROLINA...

CITY           SKY/WX    TMP DP  RH WIND       PRES   REMARKS
MYRTLE BEACH   FAIR      59  51  75 E6        30.33F
N MYRTLE BCH   FAIR      52  48  86 NE3       30.32F
CONWAY         FAIR      43  43 100 CALM      30.33F FOG
MARION         FAIR      45  43  93 E3        30.34S
HARTSVILLE     FAIR      50  45  81 E3        30.32F
FLORENCE       FAIR      50  45  83 NE3       30.33F
DARLINGTON     FAIR      47  45  93 CALM      30.34F
CHARLESTON APT FAIR      57  54  89 NE5       30.28F
MOUNT PLEASANT FAIR      61  55  82 CALM      30.29S
WALTERBORO     CLOUDY    55  52  88 E6        30.29F
BEAUFORT       FAIR      64  59  83 E9        30.26


...EASTERN GEORGIA...

CITY           SKY/WX    TMP DP  RH WIND       PRES   REMARKS
AUGUSTA BUSH F CLOUDY    59  52  77 CALM      30.27F
AUGUSTA DANIEL MOCLDY    61  51  70 SE6       30.28S
THOMSON        CLOUDY    61  52  71 S6        30.32S
WASHINGTON     FAIR      59  52  77 CALM      30.27F
CLAXTON        FAIR      60  56  88 NE6       30.24F
SYLVANIA       FAIR      57  55  94 CALM      30.27S
STATESBORO     FAIR      59  51  75 CALM      30.25F
SAVANNAH       CLOUDY    63  57  81 NE5       30.25F


...SOUTHERN NORTH CAROLINA...

CITY           SKY/WX    TMP DP  RH WIND       PRES   REMARKS
CHARLOTTE      FAIR      51  43  74 SE5       30.32F
MONROE         FAIR      50  45  83 CALM      30.32F
ROCKINGHAM     FAIR      47  45  92 CALM      30.34F
RUTHERFORDTON  FAIR      44  40  86 CALM      30.32S
ASHEVILLE      FAIR      42  37  82 CALM      30.32S

$$




USA.gov is the U.S. government's official web portal to all federal, state and local government web resources and services.